Weather History for Martha's Vineyard, MA

Change the Weather History Date:

Monday, March 3, 2014

  Actual Average Record
Temperature  
Mean Temperature 25 °F -  
Max Temperature 34 °F 41 °F 57 °F (1972)
Min Temperature 16 °F 27 °F 6 °F (1950)
Degree Days  
Heating Degree Days 40    
Moisture  
Dew Point 13 °F    
Average Humidity 65    
Maximum Humidity 85    
Minimum Humidity 40    
Precipitation  
Precipitation 0.00 in - - ()
Sea Level Pressure  
Sea Level Pressure 30.07 in    
Wind  
Wind Speed 12 mph (North)    
Max Wind Speed 20 mph    
Max Gust Speed 29 mph    
Visibility 6 miles    
Events Snow    
Averages and records for this station are not official NWS values.
T = Trace of Precipitation, MM = Missing Value Source: NWS Daily Summary

Daily Weather History Graph

Daily Weather History Graph

Search for Another Location

Airport:

Trip Planner

Search our weather history database for the weather conditions in past years. The results will help you decide how hot, cold, wet, or windy it might be!

Date:

Astronomy

Mar. 03, 2014 Rise Set
Actual Time 6:13 AM EST 5:35 PM EST
Civil Twilight 5:46 AM EST 6:03 PM EST
Nautical Twilight 5:14 AM EST 6:35 PM EST
Astronomical Twilight 4:42 AM EST 7:07 PM EST
Moon 7:18 AM EST (3/3) 8:37 PM EST (3/3)
Length of Visible Light 12h 16m
Length of Day
11h 21m
Waxing Crescent, 8% of the Moon is Illuminated
Mar 3
Waxing Crescent
Mar 8
First Quarter
Mar 16
Full
Mar 23
Last Quarter
Mar 30
New

Hourly Weather History & Observations

Time (EST) Temp. Windchill Dew Point Humidity Pressure Visibility Wind Dir Wind Speed Gust Speed Precip Events Conditions
12:53 AM 34.0 °F 27.2 °F 24.1 °F 67% 29.96 in 10.0 mi NW 8.1 mph - N/A   Overcast
1:53 AM 34.0 °F 26.6 °F 27.0 °F 75% 29.93 in 8.0 mi North 9.2 mph - N/A   Overcast
2:09 AM 33.1 °F 23.4 °F 27.0 °F 78% 29.93 in 5.0 mi North 13.8 mph 18.4 mph 0.00 in Snow Light Snow
2:31 AM 30.9 °F 22.2 °F 26.1 °F 82% 29.94 in 3.0 mi NNE 10.4 mph - 0.00 in Snow Light Snow
2:53 AM 30.0 °F 19.1 °F 25.0 °F 82% 29.95 in 8.0 mi North 15.0 mph - 0.00 in   Overcast
3:10 AM 30.0 °F 20.0 °F 25.0 °F 82% 29.94 in 2.5 mi North 12.7 mph - 0.00 in Snow Light Snow
3:22 AM 28.9 °F 19.2 °F 24.1 °F 82% 29.94 in 1.5 mi North 11.5 mph - 0.00 in Snow Light Snow
3:45 AM 28.0 °F 18.1 °F 24.1 °F 85% 29.95 in 1.5 mi North 11.5 mph - 0.00 in Snow Light Snow
3:53 AM 28.0 °F 17.0 °F 24.1 °F 85% 29.95 in 1.2 mi North 13.8 mph - 0.00 in Snow Light Snow
4:53 AM 27.0 °F 15.2 °F 21.9 °F 81% 29.97 in 1.8 mi North 15.0 mph - 0.00 in Snow Light Snow
5:53 AM 25.0 °F 13.1 °F 19.9 °F 81% 30.01 in 1.2 mi North 13.8 mph - 0.00 in Snow Light Snow
6:03 AM 25.0 °F 14.8 °F 21.0 °F 85% 30.01 in 2.0 mi North 10.4 mph - 0.00 in Snow Light Snow
6:15 AM 25.0 °F 11.7 °F 19.9 °F 81% 30.02 in 1.8 mi North 17.3 mph 24.2 mph 0.00 in Snow Light Snow
6:24 AM 25.0 °F 14.2 °F 19.0 °F 78% 30.02 in 2.0 mi North 11.5 mph - 0.00 in Snow Light Snow
6:33 AM 25.0 °F 12.6 °F 19.0 °F 78% 30.02 in 0.8 mi NNE 15.0 mph - 0.00 in Snow Light Snow
6:53 AM 24.1 °F 11.5 °F 18.0 °F 77% 30.03 in 0.5 mi North 15.0 mph 26.5 mph 0.00 in Snow Snow
7:25 AM 23.0 °F 9.2 °F 18.0 °F 81% 30.04 in 1.0 mi North 17.3 mph 26.5 mph 0.00 in Snow Light Snow
7:53 AM 21.9 °F 7.8 °F 16.0 °F 78% 30.06 in 1.8 mi North 17.3 mph 26.5 mph 0.00 in Snow Light Snow
8:12 AM 21.0 °F 6.6 °F 15.1 °F 78% 30.07 in 1.0 mi North 17.3 mph - 0.00 in Snow Light Snow
8:28 AM 19.9 °F 4.8 °F 14.0 °F 78% 30.07 in 0.5 mi North 18.4 mph 28.8 mph 0.00 in Snow Snow
8:51 AM 19.4 °F 4.1 °F 12.2 °F 74% 30.07 in 1.0 mi North 18.4 mph 27.6 mph 0.00 in Snow Light Snow
8:53 AM 19.9 °F 4.3 °F 12.0 °F 71% 30.07 in 1.2 mi North 19.6 mph 27.6 mph 0.00 in Snow Light Snow
9:03 AM 21.0 °F 7.1 °F 9.0 °F 60% 30.07 in 3.0 mi North 16.1 mph 27.6 mph 0.00 in Snow Light Snow
9:19 AM 21.0 °F 6.2 °F 6.1 °F 53% 30.08 in 10.0 mi North 18.4 mph 25.3 mph 0.00 in   Overcast
9:53 AM 21.0 °F 7.6 °F 5.0 °F 50% 30.09 in 10.0 mi North 15.0 mph - 0.00 in   Overcast
10:53 AM 21.9 °F 10.4 °F 3.9 °F 46% 30.12 in 10.0 mi NNE 11.5 mph - N/A   Overcast
11:53 AM 21.9 °F 8.2 °F 3.9 °F 46% 30.10 in 10.0 mi North 16.1 mph - N/A   Mostly Cloudy
12:53 PM 23.0 °F 12.4 °F 3.9 °F 44% 30.09 in 10.0 mi NNE 10.4 mph - N/A   Mostly Cloudy
1:53 PM 23.0 °F 11.7 °F 3.9 °F 44% 30.10 in 10.0 mi North 11.5 mph - N/A   Overcast
2:53 PM 23.0 °F 13.1 °F 1.9 °F 40% 30.10 in 10.0 mi North 9.2 mph - N/A   Overcast
3:53 PM 23.0 °F 12.4 °F 1.9 °F 40% 30.14 in 10.0 mi North 10.4 mph - N/A   Partly Cloudy
4:53 PM 23.0 °F 13.9 °F 3.9 °F 44% 30.16 in 10.0 mi North 8.1 mph - N/A   Scattered Clouds
5:53 PM 21.9 °F 17.2 °F 3.9 °F 46% 30.18 in 10.0 mi North 3.5 mph - N/A   Clear
6:53 PM 21.0 °F 14.6 °F 1.9 °F 44% 30.22 in 10.0 mi North 4.6 mph - N/A   Clear
7:53 PM 19.9 °F 14.9 °F 1.0 °F 44% 30.23 in 10.0 mi North 3.5 mph - N/A   Clear
8:53 PM 19.9 °F 12.1 °F -0.0 °F 42% 30.25 in 10.0 mi North 5.8 mph - N/A   Clear
9:53 PM 16.0 °F 7.4 °F -0.0 °F 49% 30.26 in 10.0 mi North 5.8 mph - N/A   Clear
10:53 PM 17.1 °F 6.6 °F -0.0 °F 47% 30.27 in 10.0 mi North 8.1 mph - N/A   Clear
11:53 PM 19.0 °F 7.5 °F -0.0 °F 43% 30.28 in 10.0 mi North 10.4 mph - N/A   Clear